EW4496 Weather Reports


Display with metric or nautical units.
time (UTC)temp
F
wind
direction
speed
MPH
gust
MPH
rain 1hr
in
rain 24hr
in
rain mn
in
humidity
%
barometer
mb
20260901203017 74 337 0.0 7.0 0.00 0.00 0.00 48 1014.7
20260901201517 75 345 0.0 9.0 0.00 0.00 0.00 47 1014.8
20260901200018 74 352 1.0 7.0 0.00 0.00 0.00 48 1014.9
20260901194516 73 231 0.0 6.0 0.00 0.00 0.00 51 1015.1
20260901193017 72 348 1.0 7.0 0.00 0.00 0.00 52 1015.2
20260901191539 72 330 1.0 13.0 0.00 0.00 0.00 52 1015.3
20260901190043 71 6 2.0 9.0 0.00 0.00 0.00 54 1015.4
20260901184532 71 334 2.0 8.0 0.00 0.00 0.00 55 1015.6
20260901183055 70 295 0.0 7.0 0.00 0.00 0.00 55 1015.6
20260901181546 69 315 1.0 9.0 0.00 0.00 0.00 58 1015.5
20260901180046 69 345 3.0 9.0 0.00 0.00 0.00 57 1015.5
20260901174546 69 269 4.0 13.0 0.00 0.00 0.00 58 1015.5
20260901173046 69 290 3.0 10.0 0.00 0.00 0.00 60 1015.4
20260901171549 67 17 3.0 14.0 0.00 0.00 0.00 62 1015.4
20260901170046 67 354 3.0 12.0 0.00 0.00 0.00 63 1015.3
20260901164548 67 337 1.0 9.0 0.00 0.00 0.00 64 1015.2
20260901163055 66 333 2.0 15.0 0.00 0.00 0.00 66 1015.2
20260901161546 65 15 3.0 11.0 0.00 0.00 0.00 68 1015.1
20260901160045 64 234 2.0 8.0 0.00 0.00 0.00 69 1014.9
20260901154610 63 264 4.0 9.0 0.00 0.00 0.00 71 1014.8
20260901153049 63 259 2.0 12.0 0.00 0.00 0.00 71 1014.6
20260901151546 62 228 3.0 8.0 0.00 0.00 0.00 74 1014.3
20260901150114 61 179 2.0 9.0 0.00 0.00 0.00 75 1014.3
20260901144600 60 243 2.0 7.0 0.00 0.00 0.00 77 1014.2
20260901143100 59 219 2.0 7.0 0.00 0.00 0.00 79 1014.0
20260901141604 58 279 1.0 5.0 0.00 0.00 0.00 80 1013.7
20260901134600 57 220 2.0 7.0 0.00 0.00 0.00 82 1013.3
20260901133100 57 229 4.0 10.0 0.00 0.00 0.00 82 1013.2
20260901131602 57 230 1.0 6.0 0.00 0.00 0.00 81 1013.1
20260901130005 58 193 3.0 8.0 0.00 0.00 0.00 81 1013.0
20260901124510 58 229 2.0 7.0 0.00 0.00 0.00 80 1012.8
20260901123005 58 222 4.0 10.0 0.00 0.00 0.00 81 1012.8
20260901121506 57 179 2.0 6.0 0.00 0.00 0.00 81 1012.9
20260901120020 57 221 1.0 5.0 0.00 0.00 0.00 80 1012.9
20260901114519 58 236 2.0 6.0 0.00 0.00 0.00 80 1012.6
20260901113020 58 241 3.0 8.0 0.00 0.00 0.00 79 1012.5
20260901111519 59 240 2.0 8.0 0.00 0.00 0.00 78 1012.4
20260901110043 59 218 3.0 8.0 0.00 0.00 0.00 78 1012.5
20260901104534 58 211 3.0 7.0 0.00 0.00 0.00 79 1012.5
20260901103038 58 238 2.0 8.0 0.00 0.00 0.00 80 1012.3
20260901101535 58 211 4.0 8.0 0.00 0.00 0.00 80 1012.3
20260901100033 57 233 2.0 6.0 0.00 0.00 0.00 82 1012.5
20260901094533 57 238 2.0 8.0 0.00 0.00 0.00 82 1012.5
20260901093036 57 219 2.0 6.0 0.00 0.00 0.00 83 1012.4
20260901091534 57 204 3.0 9.0 0.00 0.00 0.00 82 1012.4
20260901090033 57 229 2.0 6.0 0.00 0.00 0.00 82 1012.6
20260901084533 57 203 3.0 8.0 0.00 0.00 0.00 82 1012.7
20260901083033 58 177 3.0 8.0 0.00 0.00 0.00 82 1012.6
20260901081533 58 229 4.0 9.0 0.00 0.00 0.00 82 1012.5
20260901080038 58 212 3.0 9.0 0.00 0.00 0.00 82 1012.6
20260901074532 58 196 5.0 8.0 0.00 0.00 0.00 82 1012.5
20260901073003 58 194 3.0 10.0 0.00 0.00 0.00 82 1012.4
20260901071502 58 181 3.0 9.0 0.00 0.00 0.00 82 1012.3
20260901070002 58 232 3.0 7.0 0.00 0.00 0.00 81 1012.3
20260901064522 58 228 2.0 7.0 0.00 0.00 0.00 82 1012.3
20260901063040 58 239 1.0 5.0 0.00 0.00 0.00 81 1012.3
20260901061517 58 255 2.0 5.0 0.00 0.00 0.00 82 1012.4
20260901060017 58 223 1.0 5.0 0.00 0.00 0.00 81 1012.3
20260901054517 59 261 0.0 6.0 0.00 0.00 0.00 80 1012.2
20260901053017 59 263 1.0 6.0 0.00 0.00 0.00 79 1012.2
20260901051517 60 233 0.0 8.0 0.00 0.00 0.00 78 1012.2
20260901050051 60 262 1.0 8.0 0.00 0.00 0.00 78 1012.2
20260901044533 61 262 0.0 5.0 0.00 0.00 0.00 76 1012.2
20260901043042 61 293 1.0 6.0 0.00 0.00 0.00 76 1012.0
20260901041543 62 304 0.0 6.0 0.00 0.00 0.00 76 1011.9
20260901040042 62 260 0.0 5.0 0.00 0.00 0.00 76 1011.6
20260901034546 62 266 0.0 5.0 0.00 0.00 0.00 75 1011.5
20260901033044 63 283 1.0 5.0 0.00 0.00 0.00 74 1011.1
20260901031542 63 245 0.0 6.0 0.00 0.00 0.00 72 1010.9
20260901030057 64 359 1.0 7.0 0.00 0.00 0.00 71 1010.7
20260901024556 65 328 2.0 9.0 0.00 0.00 0.00 69 1010.5
20260901023056 66 354 2.0 12.0 0.00 0.00 0.00 66 1010.5
20260901021602 67 5 3.0 13.0 0.00 0.00 0.00 64 1010.4
20260901020111 69 1 4.0 15.0 0.00 0.00 0.00 60 1010.2
20260901014611 71 344 4.0 12.0 0.00 0.00 0.00 57 1010.0
20260901013127 73 347 4.0 10.0 0.00 0.00 0.00 53 1009.9
20260901011515 74 1 2.0 12.0 0.00 0.00 0.00 52 1009.9
20260901010021 75 319 3.0 9.0 0.00 0.00 0.00 49 1009.9
20260901004517 76 334 3.0 10.0 0.00 0.00 0.00 48 1010.0
20260901003011 76 307 3.0 11.0 0.00 0.00 0.00 47 1010.2
20260901001514 77 261 2.0 10.0 0.00 0.00 0.00 47 1010.1
20260901000010 77 15 3.0 12.0 0.00 0.00 0.00 48 1010.1
20260831234510 77 205 4.0 9.0 0.00 0.00 0.00 48 1010.1
20260831233011 78 340 3.0 10.0 0.00 0.00 0.00 47 1010.3
20260831231511 78 340 2.0 11.0 0.00 0.00 0.00 47 1010.3
20260831230009 78 18 1.0 10.0 0.00 0.00 0.00 46 1010.5
20260831224510 78 356 0.0 10.0 0.00 0.00 0.00 47 1010.6
20260831223027 79 29 1.0 10.0 0.00 0.00 0.00 45 1010.6
20260831221611 79 334 0.0 13.0 0.00 0.00 0.00 45 1010.7
20260831220010 79 347 1.0 10.0 0.00 0.00 0.00 45 1010.8
20260831214510 79 279 2.0 11.0 0.00 0.00 0.00 44 1011.0
20260831213010 78 274 2.0 8.0 0.00 0.00 0.00 43 1011.1
20260831211532 78 330 1.0 9.0 0.00 0.00 0.00 44 1011.2
20260831210034 77 26 3.0 11.0 0.00 0.00 0.00 45 1011.3
20260831204526 77 321 1.0 9.0 0.00 0.00 0.00 45 1011.3